Terminal Aerodrome Forecast
Issued by NWS State College, PA

Current Version | Previous Version | Text Only | Print | Product List | Glossary On
Versions: 1 2 3 4 5 6 7 8 9 10 11 12 13 14 15 16 17 18 19 20 21 22 23 24 25 26 27 28 29 30 31 32 33 34 35 36 37 38 39 40 41 42 43 44 45 46 47 48 49 50
000
FTUS41 KCTP 201737
TAFIPT
TAF
KIPT 201737Z 2018/2118 14006KT P6SM BKN120
     FM210300 VRB03KT P6SM VCSH OVC050
     FM210800 00000KT 6SM BR VCSH BKN030 OVC050
     FM211200 26005KT 5SM -SHRA BR OVC015=

USA.gov is the U.S. government's official web portal to all federal, state and local government web resources and services.